Regional Weather Roundup
Issued by NWS Sioux Falls, SD

Home | Current Version | Previous Version | Text Only | Print | Product List | Glossary Off
Versions: 1 2 3 4 5 6 7 8 9 10 11 12 13 14 15 16 17 18 19 20 21 22 23 24 25 26 27 28 29 30 31 32 33 34 35 36 37 38 39 40 41 42 43 44 45 46 47 48 49 50

000
ASUS43 KFSD 202310
RWRFSD

WEATHER ROUNDUP FOR SE SOUTH DAKOTA/SW MINNESOTA/NW IOWA
NATIONAL WEATHER SERVICE SIOUX FALLS SD
600 PM CDT SAT SEP 20 2014

NOTE: "FAIR" INDICATES FEW OR NO CLOUDS BELOW 12,000 FEET WITH NO
SIGNIFICANT WEATHER AND OR OBSTRUCTIONS TO VISIBILITY.


SDZ038>040-050-052>070-210000-
SOUTHEAST SOUTH DAKOTA

CITY           SKY/WX    TMP DP  RH WIND       PRES   REMARKS
CHAMBERLAIN    SUNNY     76  44  31 N21G32    30.01R
HURON          SUNNY     74  42  31 NW24G36   29.95R
MADISON        FAIR      72  52  49 N28G39    29.93R
MITCHELL       SUNNY     78  48  34 N25G32    29.95R
SIOUX FALLS    MOSUNNY   79  47  32 NW23G33   29.88R
WINNER         FAIR      79  39  23 NW24G35   30.04R
YANKTON        SUNNY    N/A N/A N/A W24G31    29.90S
$$

MNZ071-072-080-081-089-090-097-098-210000-
SOUTHWEST MINNESOTA

CITY           SKY/WX    TMP DP  RH WIND       PRES   REMARKS
FAIRMONT       PTSUNNY   81  45  28 W18G24    29.78S
JACKSON        MOSUNNY   79  48  34 W22G32    29.81R
LUVERNE        MOSUNNY   81  45  28 NW24G35   29.86R
MARSHALL       PTSUNNY   64  52  63 N22G30    29.87R
MONTEVIDEO     MOSUNNY   64  57  77 N15G26    29.88R
PIPESTONE      MOSUNNY   70  55  60 N18G29    29.91R
REDWOOD FALLS  PTSUNNY   62  59  90 NW12G18   29.84S
TRACY          PTSUNNY   64  56  73 N17G29    29.88R
WINDOM         MOSUNNY   70  55  60 N30G46    29.85R
WORTHINGTON    PTSUNNY   79  50  36 W21G32    29.84R
$$

IAZ001>003-012>014-020>022-031-032-NEZ013-014-SDZ071-210000-
NORTHWEST IOWA

CITY           SKY/WX    TMP DP  RH WIND       PRES   REMARKS
CHEROKEE       MOSUNNY   79  57  46 W14G21    29.87S
DENISON        SUNNY     81  55  41 W10G17    29.89S
ESTHERVILLE    MOSUNNY   79  54  41 W15G25    29.80F
LE MARS        SUNNY     81  55  41 NW9G15    29.89R
ORANGE CITY    SUNNY     82  46  28 W22G31    29.87S
SHELDON        SUNNY     79  54  41 W18G25    29.85R
SIOUX CITY     SUNNY     83  56  39 W10       29.89R
SPENCER        PTSUNNY   79  54  41 W23G29    29.83F
$$

ABBREVIATIONS USED IN REMARKS
   TC - TEMPERATURE IN CELSIUS
  WCI - WIND CHILL INDEX
   HX - HEAT INDEX
  VSB - VISIBILITY




USA.gov is the U.S. government's official web portal to all federal, state and local government web resources and services.